Home > Time Zones > World Clock > Weather > Italy > Monza > Past weeks

Flag for Italy Weather past 2 weeks in Monza, Italy

Now
75 °F

Passing clouds.


Feels Like: 78 °F
Forecast: 51 / 72 °F
Wind: 5 mph from Southwest

Location: Milan / Linate


UV Index: 3 (Moderate)

Visibility: N/A


Pressure: 29.92 "Hg

Humidity: 44%

Dew point: 52 °F

Location of MonzaLocation

Historic Weather in Monza

°F

Monza temperature yesterday

Maximum temperature yesterday: 73 °F (at 3:50 PM)
Minimum temperature yesterday: 50 °F (at 5:50 AM)
Average temperature yesterday: 62 °F

Past Weeks' High & Low Weather Summary

 TemperatureHumidityPressure
High75 °F (Apr 10, 4:50 PM)100% (Apr 19, 3:20 AM)30.21 "Hg (Apr 19, 3:20 AM)
Low39 °F (Apr 17, 6:20 AM)14% (Apr 16, 2:50 PM)29.62 "Hg (Apr 19, 3:20 AM)
Average58 °F65%29.93 "Hg
* Reported Apr 9 2:20 PM — Apr 24 2:50 PM, Monza, Weather by CustomWeather, © 2014

Note: Actual official high and low records may vary slightly from our data, if they occured in-between our weather recording intervals... More about our weather records

Advertising

Historic Weather Conditions — Data for Previous 24 hours

 ConditionsComfort  
Time TempWeatherWind HumidityBarometerVisibility
2:50 PM
Apr 24
75 °FSunny.3 mph44%29.92 "Hg10 mi
2:20 PM75 °FPassing clouds.6 mph41%29.92 "HgN/A
1:50 PM73 °FPassing clouds.10 mph47%29.95 "HgN/A
1:20 PM73 °FPassing clouds.8 mph50%29.95 "HgN/A
12:50 PM73 °FPassing clouds.8 mph50%29.95 "HgN/A
12:20 PM72 °FPassing clouds.8 mph53%29.95 "HgN/A
11:50 AM72 °FPassing clouds.5 mph53%29.98 "HgN/A
11:20 AM70 °FPassing clouds.5 mph57%29.98 "HgN/A
10:50 AM68 °FPassing clouds.5 mph64%29.98 "HgN/A
10:20 AM66 °FPassing clouds.3 mph64%29.98 "HgN/A
9:50 AM66 °FSunny.2 mph64%29.98 "Hg10 mi
9:20 AM64 °FSunny.2 mph73%29.98 "Hg10 mi
8:50 AM63 °FClear.2 mph77%29.98 "Hg5 mi
8:20 AM61 °FClear.2 mph77%29.98 "Hg5 mi
7:50 AM57 °FClear.1 mph94%29.98 "Hg5 mi
7:20 AM52 °FFog.1 mph100%29.98 "Hg5 mi
6:50 AM52 °FLight fog.1 mph100%29.98 "Hg5 mi
6:20 AM52 °FLight fog.No wind100%29.98 "Hg3 mi
5:50 AM52 °FFog.2 mph100%29.98 "Hg5 mi
5:20 AM52 °FClear.1 mph100%29.98 "Hg10 mi
4:50 AM52 °FClear.No wind100%29.98 "Hg10 mi
4:20 AM52 °FClear.1 mph100%30.01 "Hg10 mi
3:50 AM54 °FClear.1 mph94%30.01 "Hg10 mi
3:20 AM54 °FClear.1 mph100%30.01 "Hg10 mi
2:50 AM54 °FClear.1 mph94%30.01 "Hg10 mi
2:20 AM54 °FClear.No wind100%30.01 "Hg10 mi
1:50 AM55 °FClear.No wind94%30.01 "Hg10 mi
1:20 AM55 °FClear.No wind94%30.01 "Hg10 mi
12:50 AM55 °FClear.No wind88%30.01 "Hg10 mi
12:20 AM57 °FClear.No wind88%30.01 "Hg10 mi
11:50 PM
Apr 23
57 °FClear.3 mph82%30.01 "Hg10 mi
11:20 PM59 °FClear.1 mph77%30.01 "Hg10 mi
10:50 PM61 °FClear.2 mph77%30.01 "Hg10 mi
10:20 PM61 °FClear.2 mph77%30.01 "Hg10 mi
9:50 PM61 °FClear.No wind77%30.01 "Hg10 mi
9:20 PM64 °FPassing clouds.3 mph64%30.01 "HgN/A
8:50 PM64 °FPassing clouds.5 mph64%30.01 "HgN/A
8:20 PM64 °FPassing clouds.7 mph60%29.98 "HgN/A
7:50 PM68 °FPassing clouds.7 mph56%29.98 "HgN/A
7:20 PM70 °FScattered clouds.2 mph57%29.95 "HgN/A
6:50 PM70 °FScattered clouds.8 mph57%29.98 "HgN/A
6:20 PM72 °FScattered clouds.8 mph50%29.98 "HgN/A
5:50 PM72 °FPassing clouds.8 mph50%29.98 "HgN/A
5:20 PM72 °FScattered clouds.8 mph50%29.98 "HgN/A
4:50 PM73 °FScattered clouds.6 mph44%29.98 "HgN/A
4:20 PM73 °FScattered clouds.6 mph47%29.98 "HgN/A
3:50 PM73 °FPassing clouds.5 mph44%29.98 "HgN/A
3:20 PM72 °FPassing clouds.6 mph53%29.98 "HgN/A
Weather by CustomWeather, © 2014

See weather overview